Regional Weather Roundup
Issued by NWS Cleveland, OH

Home | Current Version | Previous Version | Graphics & Text | Print | Product List | Glossary On
Versions: 1 2 3 4 5 6 7 8 9 10 11 12 13 14 15 16 17 18 19 20 21 22 23 24 25 26 27 28 29 30 31 32 33 34 35 36 37 38 39 40 41 42 43 44 45 46 47 48 49 50
376
ASUS41 KCLE 111210
RWRCLE
OHIO REGIONAL WEATHER ROUNDUP
NATIONAL WEATHER SERVICE CLEVELAND, OH
700 AM EST THU FEB 11 2016

NOTE: "FAIR" INDICATES FEW OR NO CLOUDS BELOW 12,000 FEET WITH NO
SIGNIFICANT WEATHER AND/OR OBSTRUCTIONS TO VISIBILITY.

OHZ001>008-015>018-024>027-034-035-043-044-111300-
   NORTHWEST OHIO

CITY           SKY/WX    TMP DP  RH WIND       PRES   REMARKS
DEFIANCE       CLOUDY    16   9  74 W5        30.17R WCI   9
FINDLAY        CLOUDY    14   9  80 W8        30.15R WCI   3
TOLEDO EXPRESS CLOUDY    14   6  70 W8        30.15R WCI   3
TOLEDO EXEC    CLOUDY    15   4  61 W10       30.17R WCI   2
LIMA           CLOUDY    14   9  80 W8        30.15R WCI   3
$$

OHZ009>014-019>023-028>033-038-089-111300-
   NORTHEAST OHIO

CITY           SKY/WX    TMP DP  RH WIND       PRES   REMARKS
CLE-HOPKINS    MOCLDY    14   1  56 NW16G24   30.12R WCI  -2
CLE-LAKEFRONT  CLOUDY    17   5  59 NW22G31   30.09R WCI   0
CUY CO. ARPT   MOCLDY    25   5  42 NW16G28   30.07  WCI  12
LORAIN-ELYRIA  CLOUDY    15   1  53 NW13G21   30.11R WCI   1
ASHTABULA      CLOUDY    13   3  64 NW12G21   30.02R WCI  -1
AKRON-CANTON   CLOUDY     9   4  80 W10       30.05R HAZE    WCI  -5
WOOSTER        FLURRIES   9   3  77 W13       30.09R WCI  -7
MANSFIELD      CLOUDY     7   4  87 W7        30.09R WCI  -5
YOUNGSTOWN     LGT SNOW  12   6  77 W10       30.01R WCI  -1
$$

OHZ042-051>053-060>062-070>072-077>081-111300-
  SOUTHWEST OHIO

CITY           SKY/WX    TMP DP  RH WIND       PRES   REMARKS
CINC-COVINGTON CLOUDY    12   6  77 W5        30.20R WCI   4
CINC-LUNKEN    CLOUDY    16   7  67 NW6       30.25R WCI   7
HAMILTON       CLOUDY    12   6  77 CALM      30.23R
DAYTON         PTCLDY     9   5  84 W7        30.18R WCI  -2
WRIGHT-PAT AFB PTCLDY     7   4  87 S2        30.19R
DAYTON GENERAL CLEAR     10   4  76 W3        30.18R
WILMINGTON     CLEAR      8   4  83 W6        30.17R WCI  -2
$$

OHZ036-037-039>041-045>050-054>059-063>069-073>076-082>088-111300-
  CENTRAL AND SOUTHEAST OHIO

CITY           SKY/WX    TMP DP  RH WIND       PRES   REMARKS
COLUMBUS       PTCLDY     7   0  73 W3        30.17R
OSU AIRPORT    PTCLDY     6   2  83 W8        30.16R WCI  -7
BOLTON FIELD   NOT AVBL
RICKENBACK AFB CLEAR      5   0  79 SW3       30.18R
NEWARK         CLEAR      6   1  80 MISG      30.15R
MARION         CLOUDY    12   5  73 W5        30.13R WCI   4
LANCASTER      PTCLDY     1  -4  79 CALM      30.18R
ZANESVILLE     CLOUDY    11   4  73 SW3       30.15R
NEW PHILLY     MOCLDY    11   3  70 NW7       30.12R WCI   0
$$




USA.gov is the U.S. government's official web portal to all federal, state and local government web resources and services.